Location: Feydey
(46.3431°N, 7.0106°E)
Time: 06:32:47
(UTC+00:00)

ATLAS 3B R/B - Pass Details

Date: 20 June 2021
Orbit: 1003 x 1191 km, 63.8° (Epoch: 21 July)

Event Time Altitude Azimuth Distance (km) Brightness Sun altitude
Rises 19:58:01 0° 185° (S) 3,714 5.2 -4.9°
Reaches altitude 10° 20:00:48 10° 177° (S) 2,774 4.5 -5.2°
Maximum altitude 20:06:34 35° 114° (ESE) 1,597 3.2 -6.0°
Drops below altitude 10° 20:12:29 10° 52° (NE) 2,858 4.9 -6.7°
Sets 20:15:23 0° 44° (NE) 3,843 5.6 -7.1°
